RH
60 80 86 80 61 74 77 67 76 90 86 75 74 59 53 58 44 38 28 30 38 39 36 29 22 18 18 23 32 43 45 51 56 59 67 80 82 75 65 75 82 74 68
72 99 86 97 74 78 70 88 96 90 83 76 48 56 64 50 36 29 34 41 47 47 48 35 34 24 25 33 49 65 66 67 71 70 65 72 85 88 85 80 78 79 64
100 99 86 80 89 71 82 90 87 79 77 52 61 65 57 40 26 37 46 48 54 61 59 52 53 40 37 43 57 74 77 83 82 80 81 80 83 85 91 85 80 73 60
100 92 77 82 82 83 96 88 83 72 55 67 65 59 44 30 32 53 51 51 63 71 69 70 75 76 67 59 73 80 88 95 97 94 88 78 76 80 82 85 84 70 65
91 89 80 80 73 79 85 91 86 65 68 68 62 39 32 38 42 57 53 57 72 75 76 81 83 89 91 92 85 86 92 96 98 99 98 92 79 68 66 69 71 71 63
75 79 74 64 71 85 84 73 71 70 71 65 40 34 40 47 54 56 56 64 74 72 84 88 86 92 96 99 99 98 95 92 91 91 88 81 77 71 66 59 56 61 63
66 72 72 85 76 54 71 75 69 69 63 38 40 45 50 60 55 60 62 73 72 74 82 89 89 90 93 92 88 80 77 77 76 70 66 63 59 56 53 50 48 46 47
82 68 69 63 66 69 86 77 84 70 41 42 46 50 55 54 55 62 70 76 71 67 79 84 87 86 86 84 81 78 82 75 69 64 64 60 55 49 44 42 38 37 37
86 61 78 77 79 91 83 91 84 47 45 48 52 54 49 54 54 61 73 78 63 66 76 85 87 87 87 83 85 85 76 73 72 70 69 67 62 57 50 43 37 31 30
88 93 84 73 96 92 89 85 51 48 53 55 55 53 50 47 48 57 70 71 56 67 82 84 96 88 82 86 82 75 76 75 68 63 60 55 52 46 37 27 23 21 20
100 81 77 95 93 91 82 52 52 54 61 61 55 53 49 51 56 61 68 56 61 73 92 93 84 78 80 79 76 76 71 66 64 58 49 42 34 25 18 13 11 10 11
87 78 82 85 90 85 62 60 61 63 63 59 53 54 54 59 64 65 60 58 73 94 98 88 84 87 82 77 73 71 70 65 57 49 39 29 19 11 7 6 6 5 5
74 75 79 89 88 64 62 68 73 67 66 53 55 54 60 64 67 64 60 82 98 98 90 86 85 85 79 73 73 72 66 60 51 41 30 19 10 7 5 5 5 4 4
84 66 86 84 69 66 70 75 74 69 60 56 58 60 66 65 64 66 84 97 97 90 84 80 83 80 76 76 77 71 64 56 46 33 20 9 7 5 5 4 4 4 4
64 74 88 70 57 82 74 74 74 66 61 59 64 68 73 65 72 88 94 93 86 84 78 81 81 76 75 76 72 68 64 50 36 25 12 8 6 5 4 4 3 4 4
72 79 66 53 70 81 80 73 76 69 61 65 67 76 78 79 86 88 85 82 84 80 82 83 80 77 78 77 69 63 59 43 32 18 10 7 6 4 4 4 4 4 4
71 58 52 56 73 81 83 77 80 70 61 68 70 81 85 88 92 89 91 90 82 82 83 87 83 80 79 74 68 63 48 36 23 13 9 7 5 4 4 4 4 4 4
59 52 51 62 84 82 81 80 80 70 62 71 75 81 92 95 97 98 91 86 87 83 87 87 84 81 76 74 68 54 42 24 16 11 8 7 5 4 4 4 4 4 4
60 57 61 78 81 77 83 84 77 72 68 74 78 83 95 100 98 93 88 90 87 86 89 89 83 77 74 70 62 50 34 17 12 10 8 7 6 4 4 4 5 5 5
60 61 69 76 76 78 88 85 75 71 75 77 88 83 87 100 96 89 90 90 88 96 94 87 78 74 70 63 58 41 27 15 11 9 8 8 6 6 6 5 5 6 6
69 68 73 72 76 84 88 85 70 68 78 80 87 76 78 93 92 90 91 89 98 92 85 79 76 70 65 61 45 32 19 13 10 9 8 8 8 8 8 7 7 7 7
62 63 70 80 84 84 78 68 58 64 74 80 78 70 79 87 91 92 94 90 88 85 79 77 73 72 64 48 32 21 14 11 9 9 9 9 8 9 9 10 9 10 10
59 66 72 81 77 73 61 52 53 61 65 78 74 77 90 94 94 99 96 90 86 84 79 77 73 65 49 32 21 14 12 10 10 9 9 9 9 9 10 12 14 14 13
64 66 75 78 67 58 58 60 58 61 65 82 85 90 98 100 97 93 89 86 88 86 81 76 63 47 32 23 16 14 12 12 11 10 10 11 10 9 10 13 13 13 11
67 67 69 62 62 62 59 56 59 72 82 92 99 96 93 93 90 89 91 93 92 86 76 58 43 32 24 18 17 15 14 13 13 12 12 12 12 12 12 12 11 9 8
55 60 66 63 59 57 62 75 82 84 89 93 99 100 92 89 93 97 96 90 83 70 56 38 31 26 21 19 17 17 17 16 14 13 12 11 10 10 9 8 7 6 5
Wind_Speed
121 112 118 123 125 121 113 103 96 93 94 95 94 86 81 75 71 64 60 55 51 46 41 38 34 28 23 24 28 31 34 34 35 34 36 40 41 42 43 47 51 53 56
113 118 119 126 119 111 97 90 88 90 92 89 84 78 73 70 63 55 52 49 44 39 35 32 26 22 21 22 29 33 34 34 34 34 35 38 41 43 45 46 50 52 55
119 124 125 118 110 97 88 88 88 87 83 79 75 72 68 62 56 49 47 43 39 34 30 27 22 19 19 22 29 34 35 35 36 36 35 36 40 42 46 48 50 53 54
122 124 115 106 93 87 85 84 81 80 77 72 70 65 60 55 49 45 43 39 35 31 28 23 22 19 18 22 27 32 35 38 40 41 41 42 42 44 46 51 51 54 55
114 112 99 86 82 78 80 82 79 76 71 68 63 58 53 50 46 42 40 36 33 31 29 26 24 22 22 22 25 31 36 39 42 44 46 47 48 49 50 50 54 56 57
103 89 82 79 78 79 76 69 67 64 63 63 58 53 50 49 45 41 39 34 33 33 32 30 30 29 28 28 29 31 34 37 39 43 46 49 52 54 56 58 58 59 61
84 77 75 75 75 70 67 66 62 61 59 57 52 50 49 47 44 40 38 34 33 34 33 33 32 33 34 33 33 33 33 35 38 41 43 46 49 51 54 57 62 64 66
77 72 70 67 69 68 67 63 62 60 57 53 52 50 48 47 43 40 37 35 36 35 33 33 34 35 35 34 33 35 37 40 43 47 50 53 55 58 59 61 62 63 67
72 69 68 70 68 66 63 62 61 58 54 52 50 50 47 45 42 40 37 37 37 35 34 35 35 35 34 35 36 39 43 46 49 52 55 58 61 64 67 68 68 67 69
67 70 69 67 62 62 60 60 58 54 52 50 51 49 46 43 40 38 36 37 35 33 35 34 35 36 36 37 41 44 46 50 54 57 60 64 68 71 73 72 72 71 70
70 71 67 64 62 58 58 57 53 52 51 50 50 46 42 38 37 35 34 33 32 33 33 34 36 36 39 42 45 48 51 55 59 62 65 67 69 70 70 69 68 68 68
68 65 60 58 58 57 56 52 50 50 49 50 45 40 37 35 35 32 31 31 32 32 35 37 37 40 43 46 49 53 56 60 64 67 68 67 66 65 62 60 62 64 64
59 58 57 55 56 55 51 49 48 49 50 47 40 38 36 33 31 30 30 30 32 35 37 38 40 44 47 49 53 57 61 66 68 69 67 64 59 57 56 54 55 57 59
60 56 56 56 53 49 49 48 47 48 47 40 39 38 34 31 30 30 30 32 36 38 39 40 44 47 49 52 57 61 67 70 70 70 66 57 53 50 50 49 49 50 52
56 49 53 53 46 46 48 46 46 46 43 38 38 36 34 32 30 30 33 37 39 40 42 44 47 50 53 57 61 66 72 73 71 68 61 54 49 46 44 45 44 45 48
52 50 50 49 43 46 48 45 45 44 39 38 37 34 35 33 33 34 37 37 40 42 44 47 51 53 57 62 66 71 73 73 70 65 57 51 47 43 41 41 41 42 44
49 48 47 43 41 45 45 43 42 43 38 37 36 35 36 38 38 38 39 42 43 45 47 51 54 58 62 66 71 74 75 72 66 60 53 48 45 41 40 39 40 41 43
46 46 42 39 41 43 43 43 41 42 38 37 37 37 37 41 42 42 43 45 47 49 51 55 58 62 66 71 74 76 75 66 59 55 49 45 43 40 39 37 38 39 41
44 42 40 40 42 43 41 42 41 41 40 38 38 38 38 42 44 45 46 48 50 52 55 58 62 66 70 74 77 76 72 63 54 51 47 44 42 40 38 38 38 38 40
42 41 40 42 42 40 40 42 41 41 41 39 39 40 38 41 46 47 48 50 51 55 59 62 67 71 74 76 76 74 67 60 53 50 46 44 41 40 39 38 38 39 40
40 40 41 41 40 40 42 42 42 41 41 40 40 40 38 41 44 48 49 50 54 59 62 67 71 74 77 77 74 69 64 58 54 49 46 44 42 40 40 40 40 41 42
41 40 39 39 40 41 42 42 42 41 40 39 40 38 38 40 43 47 51 54 58 62 66 70 74 78 78 76 70 66 60 57 53 50 47 45 43 42 41 42 42 43 44
40 37 36 38 40 41 41 40 39 38 36 36 36 35 38 42 45 49 54 57 62 66 70 75 78 78 75 70 65 62 58 55 52 49 47 46 46 43 43 44 44 45 45
37 36 36 39 39 38 37 36 34 32 30 32 35 35 40 45 49 53 57 61 65 71 75 78 78 74 70 65 63 59 55 53 51 49 48 46 45 45 45 45 45 46 48
37 36 36 37 36 34 33 31 29 26 29 32 39 42 44 48 53 57 61 66 71 76 77 76 73 70 64 62 59 56 54 51 50 49 48 46 46 46 46 47 48 48 49
34 33 34 33 32 30 27 26 27 31 34 38 42 46 51 53 57 62 68 73 75 77 75 72 68 66 63 59 57 54 53 51 49 48 48 47 47 47 47 48 49 49 48
Wind_Direction
284 288 288 292 296 298 298 297 295 293 294 297 298 299 298 298 299 300 297 297 296 296 297 297 294 284 269 254 248 245 245 244 238 238 238 242 245 245 239 233 232 232 232
287 289 290 294 298 298 297 293 292 293 294 296 298 297 297 299 299 298 296 294 293 293 293 294 293 281 261 241 240 239 241 243 242 242 242 241 243 244 243 240 233 232 233
286 290 293 293 295 296 292 292 294 295 295 297 296 296 297 296 296 296 293 290 288 284 286 289 292 284 257 240 235 237 242 246 248 249 246 248 248 247 246 243 241 235 232
286 290 293 294 294 292 292 293 296 295 296 295 294 294 294 294 296 293 289 286 280 275 276 282 283 283 271 252 243 241 242 246 250 253 252 248 247 247 246 243 243 239 236
287 290 292 290 291 291 293 294 293 293 294 294 293 294 294 294 294 290 286 281 273 267 266 266 270 271 270 266 259 253 251 252 254 256 258 259 256 254 252 248 243 241 239
288 288 287 289 291 293 292 292 292 292 292 292 294 294 292 292 291 287 283 275 266 261 261 263 263 262 262 263 262 261 262 263 264 266 265 264 263 262 257 253 248 243 241
285 286 289 289 290 292 295 295 295 294 293 294 294 293 292 290 288 284 281 271 261 257 259 261 262 262 260 262 265 266 268 270 270 271 271 270 268 267 265 260 254 250 245
281 284 286 290 294 296 296 295 295 294 294 294 293 292 290 289 286 280 276 266 259 257 259 261 266 265 265 266 269 274 275 275 277 278 278 277 276 273 269 264 258 253 250
280 289 291 292 294 295 293 293 292 293 294 293 293 291 291 286 279 274 270 262 258 258 260 262 265 266 268 274 278 279 280 282 282 281 281 280 278 276 272 269 263 255 249
282 284 286 292 292 290 290 290 290 292 292 291 291 292 288 282 279 273 267 259 259 258 262 260 265 270 276 279 279 281 283 283 283 283 283 282 280 277 274 268 263 257 250
277 280 285 288 287 287 288 290 290 289 288 289 290 289 286 284 279 271 262 257 256 259 259 263 268 273 278 280 283 285 286 288 290 290 289 288 284 279 273 269 264 258 252
277 281 281 283 285 286 289 289 287 285 287 288 291 287 286 282 273 264 257 253 254 254 260 267 274 280 282 284 287 290 293 295 296 296 295 292 287 281 275 270 264 259 254
278 281 283 285 286 288 286 285 284 284 286 290 290 287 282 274 264 257 255 250 251 258 264 272 279 283 286 288 292 294 297 298 301 301 298 294 288 282 277 270 264 260 254
276 281 283 283 284 286 283 282 282 285 288 291 290 285 277 266 259 253 249 250 258 266 273 278 283 287 289 292 296 298 300 303 305 304 301 296 288 282 277 271 265 261 256
277 283 279 282 285 282 281 279 282 286 289 292 288 279 271 262 250 248 253 258 267 276 281 284 287 290 293 296 299 302 304 307 307 305 302 297 290 284 277 272 266 260 255
279 279 278 281 281 278 277 279 283 287 289 291 284 273 265 252 252 257 264 270 277 283 286 289 292 294 297 300 303 305 307 309 308 305 302 296 290 284 278 271 264 259 254
274 275 276 279 276 274 275 279 284 286 289 288 278 268 260 252 256 262 269 275 283 288 291 294 295 296 299 302 304 307 309 309 307 304 301 296 290 284 278 270 264 260 254
273 274 276 275 271 271 274 279 282 285 288 285 274 268 260 256 260 266 273 279 285 289 293 295 297 299 302 304 306 308 309 307 306 303 300 296 291 283 277 271 265 261 256
272 272 273 270 269 271 276 280 281 284 289 282 273 268 263 260 264 270 277 283 288 292 295 297 299 301 304 306 308 308 308 307 305 302 300 296 290 283 277 271 267 263 259
269 269 269 268 271 276 276 280 281 285 287 279 271 270 266 264 268 274 281 286 291 294 296 298 301 303 305 308 309 308 307 306 305 302 299 294 288 283 278 273 267 263 259
268 267 268 272 274 274 276 279 280 283 284 277 270 271 272 271 275 281 284 288 292 294 297 300 303 305 308 309 308 307 306 306 303 300 296 292 287 283 278 273 270 267 262
266 267 270 273 273 275 278 277 279 282 284 277 273 277 279 280 282 284 288 292 295 298 301 304 307 308 308 308 307 307 306 304 301 299 295 291 286 282 278 275 272 269 266
269 270 271 271 274 276 278 280 283 284 282 276 278 282 284 285 286 289 292 295 299 301 304 306 307 308 307 307 307 306 305 302 300 297 294 291 287 281 279 276 273 270 267
268 270 272 273 277 281 281 282 282 279 276 278 281 283 284 286 290 293 296 299 301 304 306 306 308 307 307 308 307 306 304 302 300 297 294 291 288 283 280 278 276 273 270
268 272 275 277 279 279 280 279 277 277 279 281 284 287 288 291 294 296 298 301 303 304 306 308 308 307 308 307 307 305 304 302 299 297 295 292 290 286 283 281 279 276 274
271 274 275 274 274 274 274 275 277 279 281 285 287 291 293 296 298 300 302 303 305 307 308 308 307 307 307 307 306 305 303 301 299 297 295 292 289 287 285 283 280 278 275